TimeEST,TemperatureF,Dew PointF,Humidity,Sea Level PressureIn,VisibilityMPH,Wind Direction,Wind SpeedMPH,Gust SpeedMPH,PrecipitationIn,Events,Conditions,WindDirDegrees,DateUTC
12:53 AM,46.9,44.1,90,30.24,10.0,Calm,Calm,-,N/A,,Clear,0,2013-03-09 05:53:00
1:53 AM,44.1,41.0,89,30.22,9.0,Calm,Calm,-,N/A,,Clear,0,2013-03-09 06:53:00
2:53 AM,42.1,39.9,92,30.21,9.0,Calm,Calm,-,N/A,,Clear,0,2013-03-09 07:53:00
3:53 AM,39.0,37.0,93,30.19,9.0,Calm,Calm,-,N/A,,Clear,0,2013-03-09 08:53:00
4:53 AM,39.9,37.9,93,30.21,7.0,Calm,Calm,-,N/A,,Clear,0,2013-03-09 09:53:00
5:53 AM,37.9,36.0,93,30.22,8.0,Calm,Calm,-,N/A,,Clear,0,2013-03-09 10:53:00
6:53 AM,37.9,36.0,93,30.23,7.0,Calm,Calm,-,N/A,Fog,Patches of Fog,0,2013-03-09 11:53:00
7:53 AM,45.0,43.0,93,30.25,7.0,Calm,Calm,-,N/A,,Clear,0,2013-03-09 12:53:00
8:53 AM,55.0,45.0,69,30.27,10.0,NE,5.8,-,N/A,,Clear,50,2013-03-09 13:53:00
9:53 AM,63.0,42.1,46,30.28,10.0,East,8.1,-,N/A,,Clear,80,2013-03-09 14:53:00
10:53 AM,66.0,41.0,40,30.27,10.0,ENE,10.4,16.1,N/A,,Clear,70,2013-03-09 15:53:00
11:53 AM,68.0,41.0,37,30.27,10.0,East,8.1,-,N/A,,Clear,80,2013-03-09 16:53:00
12:53 PM,71.1,41.0,34,30.24,10.0,ENE,10.4,20.7,N/A,,Clear,70,2013-03-09 17:53:00
1:53 PM,71.1,39.0,31,30.22,10.0,NE,9.2,-,N/A,,Clear,40,2013-03-09 18:53:00
2:53 PM,72.0,39.9,31,30.20,10.0,NE,11.5,-,N/A,,Clear,50,2013-03-09 19:53:00
3:53 PM,73.0,42.1,33,30.19,10.0,ENE,10.4,-,N/A,,Clear,70,2013-03-09 20:53:00
4:53 PM,71.1,43.0,36,30.20,10.0,East,8.1,-,N/A,,Clear,90,2013-03-09 21:53:00
5:53 PM,66.9,45.0,45,30.21,10.0,NE,15.0,-,N/A,,Clear,50,2013-03-09 22:53:00
6:53 PM,62.1,46.0,56,30.22,10.0,ENE,11.5,-,N/A,,Clear,70,2013-03-09 23:53:00
7:53 PM,59.0,46.9,64,30.24,10.0,ENE,6.9,-,N/A,,Clear,70,2013-03-10 00:53:00
8:53 PM,55.9,46.9,72,30.24,10.0,ENE,6.9,-,N/A,,Clear,70,2013-03-10 01:53:00
9:53 PM,54.0,46.9,77,30.23,10.0,ENE,5.8,-,N/A,,Clear,70,2013-03-10 02:53:00
10:53 PM,52.0,46.0,80,30.23,10.0,ENE,3.5,-,N/A,,Clear,70,2013-03-10 03:53:00
11:53 PM,52.0,46.0,80,30.22,10.0,Calm,Calm,-,N/A,,Clear,0,2013-03-10 04:53:00